Temp
59 58 57 55 52 52 51 52 53 54 55 55 55 54 52 50 49 49 50 49 48 47
57 56 55 54 54 53 53 56 55 56 55 56 55 54 52 50 51 50 50 50 49 48
57 57 56 54 53 53 55 56 55 55 55 55 55 54 52 50 51 51 49 51 50 50
57 56 56 55 55 55 54 55 55 55 55 55 54 53 52 52 52 52 51 50 51 52
56 55 55 55 55 54 54 55 56 56 56 56 55 52 53 53 55 53 51 52 51 52
56 56 55 55 55 55 55 55 55 56 55 56 55 54 54 55 54 53 53 53 51 52
55 55 54 55 54 55 57 56 55 55 56 57 55 55 56 56 53 52 53 53 52 51
56 56 55 55 55 56 58 58 56 56 56 55 55 58 53 53 52 51 51 51 52 52
58 57 56 55 55 56 58 57 56 56 59 56 58 56 55 54 51 52 51 49 50 51
60 60 58 57 56 58 57 56 53 54 58 57 55 53 54 54 51 50 49 49 49 50
61 61 60 58 59 56 57 56 52 53 54 57 58 52 51 51 50 49 50 50 48 45
61 61 60 59 58 58 55 55 52 53 53 53 54 52 49 49 53 51 48 48 47 46
61 59 61 60 57 58 56 56 55 54 53 54 53 49 48 50 51 47 46 44 45 49
59 59 62 60 59 55 55 53 52 54 51 53 52 49 47 48 49 49 46 45 44 45
MSLP
1017.09 1017.63 1018.34 1018.82 1019.45 1019.79 1020.19 1020.42 1020.44 1020.53 1020.67 1021.01 1021.54 1021.79 1021.98 1022.14 1022.16 1022.19 1022.24 1022.14 1022.02 1022.07
1016.97 1017.73 1018.57 1018.91 1019.08 1019.47 1019.85 1020.02 1020.21 1020.38 1020.68 1020.66 1021.13 1021.67 1022.00 1022.17 1022.11 1022.15 1022.20 1022.10 1022.11 1022.00
1016.44 1017.31 1017.97 1018.68 1018.86 1019.29 1019.58 1019.91 1020.41 1020.72 1020.71 1020.80 1021.06 1021.42 1021.91 1022.08 1021.94 1022.13 1022.23 1022.07 1022.03 1021.89
1016.50 1017.26 1017.80 1018.20 1018.61 1018.95 1019.34 1019.73 1020.19 1020.56 1020.68 1020.87 1021.16 1021.41 1021.78 1021.86 1021.96 1022.18 1022.18 1022.07 1021.88 1021.61
1016.84 1017.53 1017.69 1018.14 1018.67 1018.92 1019.38 1019.64 1019.71 1020.19 1020.53 1020.71 1021.05 1021.33 1021.57 1021.72 1021.82 1021.97 1022.05 1021.79 1021.68 1021.49
1016.64 1017.58 1017.88 1018.24 1018.54 1018.93 1019.39 1019.54 1019.66 1020.00 1020.41 1020.48 1020.74 1021.02 1021.25 1021.39 1021.56 1021.62 1021.51 1021.38 1021.38 1021.19
1016.64 1017.48 1017.78 1018.11 1018.69 1018.87 1018.94 1019.25 1019.66 1019.88 1020.30 1020.24 1020.46 1020.70 1020.88 1021.04 1021.21 1021.29 1021.23 1021.15 1021.09 1020.87
1016.08 1017.02 1017.77 1018.13 1018.35 1018.52 1018.84 1018.98 1019.28 1019.75 1020.11 1020.17 1020.27 1020.33 1020.57 1020.76 1020.92 1020.97 1021.01 1020.85 1020.72 1020.34
1015.37 1016.43 1017.27 1017.97 1018.54 1018.73 1018.96 1018.84 1019.18 1019.74 1019.79 1019.99 1020.04 1020.05 1020.21 1020.40 1020.59 1020.59 1020.68 1020.66 1020.30 1019.90
1014.43 1015.79 1016.64 1017.47 1018.10 1018.51 1018.64 1018.91 1019.18 1019.31 1019.47 1019.67 1019.80 1019.88 1019.98 1020.16 1020.26 1020.44 1020.53 1020.38 1020.05 1019.78
1014.42 1015.02 1015.71 1016.58 1017.23 1017.98 1018.56 1018.54 1018.71 1018.66 1019.04 1019.37 1019.51 1019.57 1019.79 1019.97 1020.15 1020.17 1020.16 1020.02 1019.83 1019.79
1013.99 1014.48 1014.78 1015.72 1016.64 1017.37 1018.11 1018.34 1018.18 1018.27 1018.67 1019.08 1019.24 1019.34 1019.49 1019.70 1019.89 1020.09 1020.07 1019.94 1019.77 1019.79
1013.33 1013.86 1014.70 1014.85 1015.77 1016.88 1017.31 1017.46 1017.62 1018.24 1018.33 1018.61 1018.84 1019.09 1019.25 1019.40 1019.70 1019.89 1020.10 1020.07 1019.97 1019.92
1013.42 1013.20 1014.44 1015.07 1015.69 1016.44 1016.96 1017.57 1017.72 1018.08 1018.17 1018.50 1018.69 1018.97 1019.24 1019.46 1019.59 1019.81 1020.04 1020.15 1020.10 1020.02
Wind_Speed
10 7 7 8 5 5 4 5 6 5 5 5 3 3 4 1 1 0 1 2 3 2
8 9 7 7 6 5 5 4 6 6 5 5 5 5 5 3 3 2 3 3 1 1
9 8 7 6 7 8 7 6 6 5 5 4 3 5 4 3 3 3 3 3 3 2
6 6 7 7 6 7 6 7 7 7 6 5 4 4 4 5 3 3 5 3 5 5
6 6 7 7 7 7 7 6 8 6 6 5 5 5 5 5 3 5 5 5 4 6
7 6 7 7 7 7 7 7 5 5 6 6 6 6 5 5 5 5 5 5 4 6
8 7 6 7 6 7 7 7 5 5 6 6 6 6 6 6 6 5 6 6 4 6
9 7 6 7 7 6 6 6 6 6 6 5 5 5 7 6 6 5 6 6 6 7
11 9 8 7 6 5 5 6 5 6 6 7 5 9 10 7 6 6 5 6 7 7
13 12 9 7 7 6 5 5 6 6 6 6 6 9 9 8 4 3 5 6 6 6
12 12 12 11 10 6 7 6 6 6 4 4 4 9 9 6 4 4 4 4 4 5
13 14 13 11 9 9 6 5 5 4 5 5 5 6 10 7 4 1 2 3 5 6
13 12 13 14 13 8 5 6 5 5 5 7 6 6 7 7 2 3 2 1 2 3
13 13 11 10 8 6 6 5 5 5 2 4 6 4 4 3 2 2 3 3 4 3
Wind_Direction
156 149 168 165 169 164 171 170 173 153 142 134 155 134 149 144 183 143 44 67 59 63
153 147 177 176 163 167 169 176 170 153 157 145 129 159 163 184 198 200 269 268 264 169
152 157 159 153 157 172 165 161 152 160 160 159 152 161 186 200 234 198 258 254 269 295
139 155 151 145 148 158 153 159 160 174 168 175 191 153 172 209 238 259 273 265 251 266
144 157 151 150 162 155 155 165 166 171 182 187 198 185 189 216 256 230 235 249 265 272
150 159 160 159 159 162 157 168 175 173 184 180 191 188 212 211 230 228 239 253 266 280
157 164 170 162 168 171 171 169 173 187 207 190 193 202 217 225 244 262 266 267 269 273
147 155 163 178 188 180 176 183 187 193 218 222 204 208 219 229 240 245 261 276 275 270
152 157 175 180 192 176 193 195 205 226 218 207 220 219 216 207 212 231 258 287 294 283
161 172 174 170 181 191 198 190 209 228 212 216 230 223 222 204 213 257 269 274 283 303
179 177 173 180 183 173 219 198 197 200 207 189 225 212 219 237 221 246 273 297 304 124
180 191 185 177 172 188 192 197 192 192 193 198 247 222 231 197 229 289 19 348 144 149
182 202 196 179 178 186 182 195 167 206 199 219 231 248 209 191 194 164 186 92 226 198
192 198 193 177 182 171 169 207 178 206 214 246 229 227 210 248 222 180 154 210 237 249